Location: Luz Observatory
(34.5000°N, 117.2833°W)
Time: 16:50:11
(UTC-07:00)

Cosmos 1484 Rocket - Visible Passes

Search period start: 31 August 2015 00:00
Search period end: 10 September 2015 00:00
Orbit: 511 x 566 km, 97.4° (Epoch: 31 August)

Date Brightness Start Highest point End Pass type
(mag) Time Alt. Az. Time Alt. Az. Time Alt. Az.
31 Aug 5.8 20:47:42 10° SW 20:50:04 15° W 20:52:16 10° WNW visible
01 Sep 5.7 20:39:21 10° SW 20:42:13 18° W 20:44:59 10° NW visible
02 Sep 5.4 20:31:09 10° SSW 20:34:23 22° W 20:37:33 10° NW visible
03 Sep 5.0 20:23:03 10° SSW 20:26:33 28° W 20:30:02 10° NW visible
04 Sep 4.6 20:15:02 10° SSW 20:18:45 35° W 20:22:27 10° NNW visible
05 Sep 4.1 20:07:05 10° S 20:10:56 43° W 20:14:49 10° NNW visible
06 Sep 3.6 19:59:11 10° S 20:03:09 55° W 20:07:07 10° NNW visible
07 Sep 3.2 19:51:20 10° S 19:55:21 71° W 19:59:23 10° NNW visible
08 Sep 2.9 19:43:32 10° SSE 19:47:34 90° SW 19:51:37 10° NNW visible
09 Sep 2.8 19:35:47 10° SSE 19:39:48 72° ENE 19:43:49 10° N visible
